Location: Newark
(21.1200°N, 73.4000°E)
Time: 20:54:12
(UTC+00:00)

Courier 1B Rocket - Pass Details

Date: 25 January 2020
Orbit: 920 x 1202 km, 28.2° (Epoch: 19 February)

Event Time Altitude Azimuth Distance (km) Brightness Sun altitude
Rises 09:12:34 0° 285° (WNW) 3,823 8.3 41.1°
Reaches altitude 10° 09:15:29 10° 291° (WNW) 2,823 7.7 40.7°
Maximum altitude 09:22:01 47° 4° (N) 1,279 5.8 39.7°
Drops below altitude 10° 09:28:10 10° 77° (ENE) 2,655 7.0 38.8°
Sets 09:30:50 0° 84° (E) 3,575 7.6 38.4°
